Location: Theydon Bois
(51.6750°N, 0.1050°E)
Time: 05:38:26
(UTC+00:00)

Envisat - Pass Details

Date: 12 December 2019
Orbit: 764 x 766 km, 98.1° (Epoch: 20 January)

Event Time Altitude Azimuth Distance (km) Brightness Sun altitude
Rises 18:02:53 0° 174° (S) 3,222 6.3 -19.4°
Reaches altitude 10° 18:05:13 10° 178° (S) 2,300 5.6 -19.7°
Maximum altitude 18:10:14 61° 259° (WSW) 871 3.5 -20.5°
Drops below altitude 10° 18:15:17 10° 340° (NNW) 2,317 5.6 -21.2°
Sets 18:17:39 0° 344° (NNW) 3,248 6.3 -21.6°
